Hourly Weather Rusanovo

Today, 16 April, Friday

Time Temperature Precipitation Wind Pressure Humidity
00:00 +10°C° 0.1 mm 3 mps 742 mmHg 89%
01:00 +10°C° 0.1 mm 4 mps 742 mmHg 90%
02:00 +10°C° 0.1 mm 4 mps 742 mmHg 91%
03:00 +8°C° 0.2 mm 4 mps 742 mmHg 92%
04:00 +8°C° 0.2 mm 4 mps 743 mmHg 92%
05:00 +8°C° 0.2 mm 4 mps 743 mmHg 93%
06:00 +10°C° 0 mm 4 mps 743 mmHg 90%
07:00 +10°C° 0 mm 4 mps 744 mmHg 87%
08:00 +11°C° 0 mm 4 mps 744 mmHg 84%
09:00 +12°C° 0.1 mm 4 mps 744 mmHg 79%
10:00 +13°C° 0.1 mm 4 mps 744 mmHg 74%
11:00 +14°C° 0.1 mm 4 mps 745 mmHg 68%
12:00 +14°C° 0.5 mm 4 mps 745 mmHg 69%
13:00 +14°C° 0.5 mm 4 mps 745 mmHg 70%
14:00 +14°C° 0.5 mm 4 mps 745 mmHg 71%
15:00 +13°C° 1.6 mm 4 mps 744 mmHg 76%
16:00 +12°C° 1.6 mm 4 mps 744 mmHg 82%
17:00 +11°C° 1.6 mm 4 mps 744 mmHg 88%
18:00 +11°C° 2.9 mm 4 mps 744 mmHg 89%
19:00 +11°C° 2.9 mm 4 mps 745 mmHg 90%
20:00 +10°C° 2.9 mm 4 mps 745 mmHg 92%
21:00 +10°C° 0.9 mm 4 mps 745 mmHg 92%
22:00 +10°C° 0.9 mm 4 mps 745 mmHg 92%
23:00 +10°C° 0.9 mm 4 mps 745 mmHg 93%

Tomorrow, 17 April, Saturday

Time Temperature Precipitation Wind Pressure Humidity
00:00 +9°C° 0.1 mm 3 mps 745 mmHg 93%
01:00 +9°C° 0.1 mm 3 mps 746 mmHg 94%
02:00 +8°C° 0.1 mm 3 mps 746 mmHg 94%
03:00 +8°C° 0.1 mm 3 mps 746 mmHg 94%
04:00 +8°C° 0.1 mm 3 mps 746 mmHg 93%
05:00 +8°C° 0.1 mm 3 mps 746 mmHg 92%
06:00 +9°C° 0.1 mm 3 mps 746 mmHg 90%
07:00 +9°C° 0.1 mm 3 mps 746 mmHg 89%
08:00 +10°C° 0.1 mm 4 mps 747 mmHg 87%
09:00 +10°C° 0 mm 4 mps 747 mmHg 86%
10:00 +10°C° 0 mm 4 mps 747 mmHg 85%
11:00 +10°C° 0 mm 4 mps 747 mmHg 85%
12:00 +10°C° 0.4 mm 4 mps 746 mmHg 85%
13:00 +10°C° 0.4 mm 4 mps 746 mmHg 86%
14:00 +10°C° 0.4 mm 4 mps 746 mmHg 86%
15:00 +11°C° 0.3 mm 4 mps 746 mmHg 84%
16:00 +10°C° 0.3 mm 5 mps 745 mmHg 81%
17:00 +10°C° 0.3 mm 5 mps 745 mmHg 78%
18:00 +11°C° 0.4 mm 4 mps 745 mmHg 80%
19:00 +10°C° 0.4 mm 4 mps 745 mmHg 82%
20:00 +9°C° 0.4 mm 3 mps 746 mmHg 84%
21:00 +9°C° 0 mm 3 mps 745 mmHg 84%
22:00 +8°C° 0 mm 4 mps 745 mmHg 83%
23:00 +8°C° 0 mm 4 mps 745 mmHg 83%

Day after tomorrow, 18 April, Sunday

Time Temperature Precipitation Wind Pressure Humidity
00:00 +7°C° 0.3 mm 4 mps 745 mmHg 84%
01:00 +7°C° 0.3 mm 4 mps 745 mmHg 86%
02:00 +7°C° 0.3 mm 4 mps 745 mmHg 87%
03:00 +6°C° 0.2 mm 4 mps 745 mmHg 88%
04:00 +7°C° 0.2 mm 3 mps 746 mmHg 89%
05:00 +7°C° 0.2 mm 3 mps 746 mmHg 90%
06:00 +7°C° 0 mm 3 mps 746 mmHg 87%
07:00 +7°C° 0 mm 3 mps 746 mmHg 84%
08:00 +8°C° 0 mm 3 mps 746 mmHg 82%
09:00 +8°C° 0.1 mm 3 mps 746 mmHg 79%
10:00 +8°C° 0.1 mm 3 mps 747 mmHg 77%
11:00 +9°C° 0.1 mm 3 mps 747 mmHg 75%
12:00 +9°C° 0.2 mm 3 mps 747 mmHg 77%
13:00 +9°C° 0.2 mm 3 mps 747 mmHg 79%
14:00 +7°C° 0.2 mm 4 mps 747 mmHg 80%
15:00 +7°C° 0.2 mm 4 mps 747 mmHg 83%
16:00 +6°C° 0.2 mm 4 mps 747 mmHg 85%
17:00 +6°C° 0.2 mm 4 mps 747 mmHg 88%
18:00 +5°C° 0.1 mm 3 mps 747 mmHg 90%
19:00 +5°C° 0.1 mm 3 mps 747 mmHg 92%
20:00 +4°C° 0.1 mm 3 mps 747 mmHg 93%
21:00 +4°C° 0 mm 3 mps 747 mmHg 94%
22:00 +4°C° 0 mm 3 mps 747 mmHg 94%
23:00 +4°C° 0 mm 3 mps 747 mmHg 94%

19 April, Monday

Time Temperature Precipitation Wind Pressure Humidity
00:00 +4°C° 0 mm 3 mps 747 mmHg 94%
01:00 +4°C° 0 mm 3 mps 747 mmHg 94%
02:00 +4°C° 0 mm 3 mps 747 mmHg 94%
03:00 +4°C° 0.2 mm 3 mps 747 mmHg 94%
04:00 +4°C° 0.2 mm 3 mps 747 mmHg 94%
05:00 +4°C° 0.2 mm 3 mps 747 mmHg 95%
06:00 +5°C° 0.1 mm 3 mps 747 mmHg 93%
07:00 +5°C° 0.1 mm 4 mps 747 mmHg 91%
08:00 +6°C° 0.1 mm 4 mps 747 mmHg 89%
09:00 +7°C° 0.1 mm 4 mps 747 mmHg 82%
10:00 +8°C° 0.1 mm 4 mps 747 mmHg 76%
11:00 +10°C° 0.1 mm 4 mps 747 mmHg 69%
12:00 +10°C° 0.2 mm 4 mps 747 mmHg 68%
13:00 +11°C° 0.2 mm 4 mps 746 mmHg 66%
14:00 +11°C° 0.2 mm 4 mps 746 mmHg 64%
15:00 +9°C° 0.3 mm 5 mps 746 mmHg 71%
16:00 +8°C° 0.3 mm 5 mps 746 mmHg 78%
17:00 +8°C° 0.3 mm 5 mps 746 mmHg 84%
18:00 +7°C° 0.1 mm 5 mps 746 mmHg 86%
19:00 +7°C° 0.1 mm 5 mps 745 mmHg 88%
20:00 +7°C° 0.1 mm 5 mps 745 mmHg 90%
21:00 +6°C° 0.4 mm 5 mps 745 mmHg 90%
22:00 +6°C° 0.4 mm 5 mps 744 mmHg 91%
23:00 +5°C° 0.4 mm 5 mps 744 mmHg 92%

20 April, Tuesday

Time Temperature Precipitation Wind Pressure Humidity
00:00 +5°C° 0.3 mm 5 mps 743 mmHg 92%
01:00 +5°C° 0.3 mm 5 mps 743 mmHg 92%
02:00 +4°C° 0.3 mm 6 mps 742 mmHg 93%
03:00 +4°C° 0.7 mm 6 mps 742 mmHg 92%
04:00 +4°C° 0.7 mm 6 mps 741 mmHg 92%
05:00 +3°C° 0.7 mm 7 mps 740 mmHg 91%
06:00 +3°C° 0.7 mm 7 mps 739 mmHg 91%
07:00 +3°C° 0.7 mm 7 mps 739 mmHg 91%
08:00 +3°C° 0.7 mm 7 mps 738 mmHg 91%
09:00 +2°C° 1.1 mm 8 mps 737 mmHg 91%
10:00 +4°C° 1.1 mm 8 mps 735 mmHg 91%
11:00 +4°C° 1.1 mm 8 mps 734 mmHg 91%
12:00 +3°C° 2 mm 9 mps 733 mmHg 90%
13:00 +5°C° 2 mm 9 mps 732 mmHg 89%
14:00 +5°C° 2 mm 9 mps 731 mmHg 89%
15:00 +5°C° 1.7 mm 9 mps 731 mmHg 90%
16:00 +6°C° 1.7 mm 9 mps 730 mmHg 90%
17:00 +6°C° 1.7 mm 8 mps 730 mmHg 91%
18:00 +6°C° 0.6 mm 8 mps 730 mmHg 91%
19:00 +6°C° 0.6 mm 7 mps 730 mmHg 91%
20:00 +6°C° 0.6 mm 7 mps 729 mmHg 91%
21:00 +6°C° 0.7 mm 7 mps 729 mmHg 91%
22:00 +6°C° 0.7 mm 7 mps 728 mmHg 91%
23:00 +7°C° 0.7 mm 6 mps 728 mmHg 91%

21 April, Wednesday

Time Temperature Precipitation Wind Pressure Humidity
00:00 +7°C° 0.9 mm 6 mps 727 mmHg 91%
01:00 +7°C° 0.9 mm 6 mps 727 mmHg 91%
02:00 +7°C° 0.9 mm 5 mps 727 mmHg 91%
03:00 +4°C° 0.4 mm 6 mps 727 mmHg 93%
04:00 +3°C° 0.4 mm 6 mps 728 mmHg 94%
05:00 +1°C° 0.4 mm 6 mps 729 mmHg 96%
06:00 +2°C° 0.1 mm 6 mps 729 mmHg 93%
07:00 +3°C° 0.1 mm 6 mps 730 mmHg 90%
08:00 +3°C° 0.1 mm 6 mps 731 mmHg 87%
09:00 +3°C° 0.2 mm 7 mps 731 mmHg 88%
10:00 +4°C° 0.2 mm 7 mps 732 mmHg 89%
11:00 +4°C° 0.2 mm 7 mps 732 mmHg 90%
12:00 +4°C° 0.1 mm 7 mps 733 mmHg 90%
13:00 +4°C° 0.1 mm 7 mps 733 mmHg 90%
14:00 +4°C° 0.1 mm 7 mps 733 mmHg 90%
15:00 +4°C° 0.4 mm 7 mps 733 mmHg 92%
16:00 +3°C° 0.4 mm 7 mps 734 mmHg 94%
17:00 +3°C° 0.4 mm 6 mps 734 mmHg 96%
18:00 +3°C° 0.2 mm 6 mps 735 mmHg 96%
19:00 +3°C° 0.2 mm 6 mps 735 mmHg 96%
20:00 +3°C° 0.2 mm 6 mps 736 mmHg 96%
21:00 +3°C° 0.1 mm 5 mps 736 mmHg 95%
22:00 +3°C° 0.1 mm 5 mps 737 mmHg 93%
23:00 +3°C° 0.1 mm 5 mps 737 mmHg 91%
Show more